TimeAKDT,TemperatureF,Dew PointF,Humidity,Sea Level PressureIn,VisibilityMPH,Wind Direction,Wind SpeedMPH,Gust SpeedMPH,PrecipitationIn,Events,Conditions,WindDirDegrees,DateUTC
12:56 AM,34.9,32.9,92,29.47,10.0,NE,19.6,28.8,N/A,,Overcast,50,2013-09-04 08:56:00
1:56 AM,34.9,32.9,92,29.48,10.0,NE,18.4,29.9,N/A,,Overcast,50,2013-09-04 09:56:00
2:56 AM,34.9,32.0,89,29.49,10.0,NE,21.9,27.6,N/A,,Overcast,50,2013-09-04 10:56:00
3:05 AM,35.6,33.8,93,29.48,10.0,NE,18.4,24.2,N/A,,Overcast,50,2013-09-04 11:05:00
3:13 AM,35.6,33.8,93,29.48,10.0,NE,21.9,25.3,N/A,,Overcast,50,2013-09-04 11:13:00
3:56 AM,34.0,32.0,92,29.49,10.0,NE,18.4,-,N/A,,Overcast,50,2013-09-04 11:56:00
4:38 AM,33.8,32.0,93,29.48,10.0,ENE,19.6,26.5,N/A,,Overcast,60,2013-09-04 12:38:00
4:56 AM,34.0,32.0,92,29.49,10.0,NE,18.4,24.2,N/A,,Overcast,50,2013-09-04 12:56:00
5:05 AM,33.8,32.0,93,29.48,10.0,NE,19.6,23.0,N/A,,Overcast,50,2013-09-04 13:05:00
5:14 AM,33.8,32.0,93,29.48,9.0,NE,19.6,25.3,N/A,,Overcast,50,2013-09-04 13:14:00
5:56 AM,34.0,32.0,92,29.49,10.0,NE,20.7,26.5,N/A,,Overcast,50,2013-09-04 13:56:00
6:08 AM,33.8,32.0,93,29.49,10.0,NE,21.9,-,N/A,,Overcast,50,2013-09-04 14:08:00
6:56 AM,33.8,30.2,87,29.49,10.0,NE,20.7,26.5,N/A,,Overcast,50,2013-09-04 14:56:00
7:20 AM,33.8,30.2,87,29.49,10.0,ENE,18.4,25.3,N/A,,Scattered Clouds,60,2013-09-04 15:20:00
7:29 AM,33.8,30.2,87,29.49,10.0,NE,15.0,25.3,N/A,,Mostly Cloudy,50,2013-09-04 15:29:00
7:38 AM,33.8,30.2,87,29.49,10.0,NE,19.6,24.2,N/A,,Scattered Clouds,50,2013-09-04 15:38:00
7:46 AM,33.8,30.2,87,29.49,10.0,NE,18.4,24.2,N/A,,Mostly Cloudy,50,2013-09-04 15:46:00
7:56 AM,32.9,31.1,93,29.51,10.0,NE,19.6,-,N/A,,Mostly Cloudy,50,2013-09-04 15:56:00
8:04 AM,33.8,30.2,87,29.50,10.0,NE,19.6,-,N/A,,Scattered Clouds,50,2013-09-04 16:04:00
8:35 AM,33.8,30.2,87,29.50,10.0,NE,17.3,-,N/A,,Mostly Cloudy,50,2013-09-04 16:35:00
8:56 AM,34.0,31.1,89,29.52,10.0,NE,19.6,-,N/A,,Overcast,50,2013-09-04 16:56:00
9:08 AM,33.8,30.2,87,29.51,9.0,NE,18.4,-,N/A,,Overcast,50,2013-09-04 17:08:00
9:56 AM,34.0,30.0,85,29.52,10.0,NE,17.3,25.3,N/A,,Mostly Cloudy,50,2013-09-04 17:56:00
10:56 AM,36.0,31.1,82,29.53,10.0,ENE,23.0,-,N/A,,Mostly Cloudy,60,2013-09-04 18:56:00
11:56 AM,36.9,32.0,83,29.55,10.0,ENE,21.9,32.2,N/A,,Overcast,60,2013-09-04 19:56:00
12:56 PM,37.4,32.0,81,29.55,10.0,ENE,19.6,29.9,N/A,,Mostly Cloudy,60,2013-09-04 20:56:00
1:56 PM,39.9,32.9,76,29.56,10.0,ENE,25.3,29.9,N/A,,Overcast,70,2013-09-04 21:56:00
2:56 PM,38.8,32.9,79,29.57,10.0,NE,19.6,-,N/A,,Mostly Cloudy,50,2013-09-04 22:56:00
3:56 PM,37.9,32.9,82,29.57,10.0,NE,19.6,27.6,N/A,,Overcast,50,2013-09-04 23:56:00
4:29 PM,37.4,33.8,87,29.56,10.0,NE,23.0,27.6,N/A,,Overcast,50,2013-09-05 00:29:00
4:56 PM,37.9,34.0,86,29.57,10.0,NE,23.0,28.8,N/A,,Overcast,50,2013-09-05 00:56:00
5:35 PM,37.4,33.8,87,29.57,10.0,NE,19.6,26.5,N/A,,Overcast,50,2013-09-05 01:35:00
5:56 PM,37.9,32.9,82,29.59,10.0,ENE,20.7,26.5,N/A,,Overcast,60,2013-09-05 01:56:00
6:15 PM,37.4,33.8,87,29.58,10.0,ENE,21.9,-,N/A,,Overcast,60,2013-09-05 02:15:00
6:29 PM,37.4,33.8,87,29.58,10.0,ENE,19.6,26.5,N/A,,Overcast,60,2013-09-05 02:29:00
6:56 PM,37.9,32.9,82,29.60,10.0,ENE,21.9,26.5,N/A,,Overcast,60,2013-09-05 02:56:00
7:30 PM,37.4,33.8,87,29.59,10.0,ENE,19.6,27.6,N/A,,Mostly Cloudy,70,2013-09-05 03:30:00
7:56 PM,37.9,34.0,86,29.60,10.0,ENE,16.1,27.6,N/A,,Overcast,60,2013-09-05 03:56:00
8:10 PM,37.4,33.8,87,29.59,10.0,ENE,17.3,-,N/A,,Overcast,60,2013-09-05 04:10:00
8:41 PM,37.4,33.8,87,29.60,10.0,ENE,19.6,26.5,N/A,,Overcast,60,2013-09-05 04:41:00
8:56 PM,37.9,32.9,82,29.62,10.0,ENE,21.9,31.1,N/A,,Overcast,60,2013-09-05 04:56:00
9:03 PM,37.4,33.8,87,29.60,10.0,ENE,19.6,26.5,N/A,,Overcast,60,2013-09-05 05:03:00
9:56 PM,36.9,32.9,86,29.62,10.0,ENE,18.4,26.5,N/A,,Overcast,60,2013-09-05 05:56:00
10:56 PM,36.9,32.9,86,29.63,10.0,NE,17.3,-,N/A,,Overcast,50,2013-09-05 06:56:00
11:40 PM,35.6,33.8,93,29.62,10.0,NE,16.1,-,N/A,,Overcast,50,2013-09-05 07:40:00
11:47 PM,35.6,33.8,93,29.62,10.0,NE,19.6,-,N/A,,Overcast,50,2013-09-05 07:47:00
11:56 PM,36.0,32.9,89,29.64,10.0,NE,18.4,25.3,N/A,,Overcast,50,2013-09-05 07:56:00